FW6247 Weather Reports


Display with metric or nautical units.
time (UTC)temp
F
wind
direction
speed
MPH
gust
MPH
rain 1hr
in
rain 24hr
in
rain mn
in
humidity
%
barometer
mb
20260906180032 55 306 1.0 4.0 0.00 0.19 0.19 94 1018.9
20260906174534 54 313 1.0 5.0 0.00 0.19 0.19 94 1018.8
20260906173029 54 308 2.0 6.0 0.00 0.19 0.19 94 1018.8
20260906171530 53 312 1.0 6.0 0.01 0.19 0.19 94 1018.8
20260906170032 53 325 0.0 7.0 0.01 0.19 0.19 94 1018.7
20260906164532 53 313 0.0 4.0 0.01 0.19 0.19 94 1018.7
20260906161531 53 314 0.0 5.0 0.00 0.18 0.18 93 1018.6
20260906160030 53 318 0.0 2.0 0.00 0.18 0.18 93 1018.6
20260906154532 53 319 0.0 3.0 0.00 0.18 0.18 93 1018.6
20260906153031 53 318 0.0 4.0 0.02 0.18 0.18 93 1018.5
20260906150035 52 163 0.0 4.0 0.09 0.18 0.18 93 1018.5
20260906144536 52 157 0.0 0.0 0.11 0.18 0.16 93 1018.2
20260906143035 52 157 0.0 0.0 0.11 0.16 0.14 93 1018.0
20260906141529 52 157 0.0 0.0 0.09 0.14 0.09 93 1017.8
20260906140033 52 157 0.0 0.0 0.05 0.09 0.07 92 1017.6
20260906134531 52 157 0.0 0.0 0.04 0.07 0.05 92 1017.5
20260906133036 52 157 0.0 0.0 0.03 0.05 0.04 92 1017.2
20260906130032 52 157 0.0 2.0 0.02 0.04 0.03 92 1017.4
20260906124614 52 157 0.0 0.0 0.01 0.03 0.02 91 1017.4
20260906123036 52 157 0.0 1.0 0.00 0.02 0.02 91 1017.4
20260906121537 52 77 0.0 2.0 0.00 0.02 0.02 91 1017.4
20260906120113 52 67 0.0 0.0 0.00 0.02 0.02 91 1017.5
20260906114536 53 67 0.0 0.0 0.00 0.02 0.02 91 1017.6
20260906113037 53 67 0.0 0.0 0.00 0.02 0.02 91 1017.7
20260906111536 53 67 0.0 0.0 0.00 0.02 0.02 91 1017.7
20260906110037 53 67 0.0 1.0 0.00 0.02 0.02 90 1017.7
20260906101535 52 192 1.0 4.0 0.01 0.02 0.02 88 1017.5
20260906100038 53 208 2.0 7.0 0.02 0.02 0.02 88 1017.7
20260906094538 53 185 4.0 8.0 0.02 0.02 0.02 87 1017.8
20260906093112 53 198 3.0 7.0 0.02 0.02 0.01 87 1018.0
20260906091538 53 165 4.0 8.0 0.01 0.01 0.00 86 1018.1
20260906081531 53 180 3.0 6.0 0.00 0.00 0.00 82 1018.0
20260906080038 53 158 2.0 6.0 0.00 0.00 0.00 82 1018.0
20260906074538 54 160 2.0 6.0 0.00 0.00 0.00 80 1018.0
20260906071537 55 157 0.0 3.0 0.00 0.00 0.00 77 1018.1
20260906070038 55 160 3.0 5.0 0.00 0.00 0.00 77 1018.2
20260906063037 53 158 3.0 7.0 0.00 0.00 0.00 78 1018.3
20260906061536 53 169 3.0 7.0 0.00 0.00 0.00 79 1018.2
20260906060036 54 176 0.0 4.0 0.00 0.00 0.00 79 1018.3
20260906054537 53 168 3.0 5.0 0.00 0.00 0.00 79 1018.4
20260906053037 52 172 4.0 6.0 0.00 0.00 0.00 79 1018.5
20260906051536 52 161 4.0 6.0 0.00 0.00 0.00 78 1018.5
20260906050036 53 157 2.0 4.0 0.00 0.00 0.00 78 1018.6
20260906044538 53 158 3.0 6.0 0.00 0.00 0.00 78 1018.6
20260906043036 53 169 4.0 5.0 0.00 0.00 0.00 77 1018.6
20260906034537 55 165 1.0 4.0 0.00 0.00 0.00 74 1018.4
20260906033037 55 229 0.0 3.0 0.00 0.00 0.00 72 1018.3
20260906031536 56 209 0.0 4.0 0.00 0.00 0.00 69 1018.1
20260906030035 57 285 1.0 4.0 0.00 0.00 0.00 66 1018.1
20260906024538 58 284 2.0 5.0 0.00 0.00 0.00 64 1018.0
20260906023037 60 294 2.0 5.0 0.00 0.00 0.00 61 1017.8
20260906014529 64 318 2.0 9.0 0.00 0.00 0.00 56 1017.8
20260906011531 66 295 5.0 12.0 0.00 0.00 0.00 53 1017.9
20260906010125 67 286 7.0 14.0 0.00 0.00 0.00 52 1018.0
20260906004624 69 292 7.0 19.0 0.00 0.00 0.00 48 1017.8
20260906003041 71 298 6.0 16.0 0.00 0.00 0.00 43 1017.7
20260906001539 72 319 3.0 12.0 0.00 0.00 0.00 43 1017.6
20260906000030 72 332 2.0 9.0 0.00 0.00 0.00 44 1017.4
20260905234530 69 337 1.0 10.0 0.00 0.00 0.00 48 1017.5
20260905231607 68 333 0.0 6.0 0.00 0.00 0.00 48 1017.7
20260905230108 70 331 1.0 7.0 0.00 0.00 0.00 47 1017.8
20260905224534 69 20 1.0 6.0 0.00 0.01 0.00 49 1017.8
20260905221536 68 12 2.0 8.0 0.00 0.02 0.00 51 1018.1
20260905220032 68 25 1.0 5.0 0.00 0.02 0.00 52 1018.2
20260905214611 67 36 2.0 7.0 0.00 0.02 0.00 54 1018.5
20260905210038 66 70 0.0 5.0 0.00 0.02 0.00 57 1018.8
20260905204538 65 344 0.0 4.0 0.00 0.02 0.00 58 1018.8
20260905203037 66 67 1.0 6.0 0.00 0.02 0.00 56 1019.0
20260905194532 66 344 1.0 7.0 0.00 0.02 0.00 61 1019.2
20260905193036 65 351 1.0 8.0 0.00 0.02 0.00 64 1019.3
20260905191538 64 337 1.0 6.0 0.00 0.02 0.00 67 1019.5
20260905190038 62 342 0.0 5.0 0.00 0.02 0.00 68 1019.8
20260905184536 61 331 1.0 5.0 0.00 0.02 0.00 69 1019.9
20260905183040 60 9 0.0 4.0 0.00 0.02 0.00 70 1020.0
20260905181537 59 11 1.0 4.0 0.00 0.02 0.00 72 1020.1